Location: Allaines
(49.9632°N, 2.9458°E)
Time: 23:19:52
(UTC+00:00)

SL-08 RB Rocket - Pass Details

Date: 09 April 2020
Orbit: 646 x 685 km, 97.8° (Epoch: 27 May)

Event Time Altitude Azimuth Distance (km) Brightness Sun altitude
Rises 18:56:56 0° 146° (SE) 2,993 6.6 -4.5°
Reaches altitude 10° 18:59:12 10° 140° (SE) 2,091 5.8 -4.8°
Maximum altitude 19:03:32 45° 69° (ENE) 924 4.2 -5.5°
Drops below altitude 10° 19:07:58 10° 357° (N) 2,128 6.6 -6.2°
Sets 19:10:17 0° 352° (N) 3,052 7.5 -6.5°
